Regional Weather Roundup
Issued by NWS

Home | Current Version | Previous Version | Text Only | Print | Product List | Glossary Off
Versions: 1 2 3 4 5 6 7 8 9 10 11 12 13 14 15 16 17 18 19 20 21 22 23 24 25 26 27 28 29 30 31 32 33 34 35 36 37 38 39 40 41 42 43 44 45 46 47 48 49 50

579
ASUS43 KMKX 200910
RWRWI

WISCONSIN REGIONAL WEATHER ROUNDUP
NATIONAL WEATHER SERVICE MILWAUKEE/SULLIVAN WI
300 AM CST MON NOV 20 2017

NOTE: "FAIR" INDICATES FEW OR NO CLOUDS BELOW 12,000 FEET WITH NO
SIGNIFICANT WEATHER AND/OR OBSTRUCTIONS TO VISIBILITY.

WIZ001-002-006>008-014>016-023>028-201000-
NORTHWEST WISCONSIN

CITY           SKY/WX    TMP DP  RH WIND       PRES   REMARKS
SUPERIOR ARPT  CLOUDY    18  17  93 CALM      29.74F
ASHLAND        PTCLDY    16  13  88 CALM      29.76F
HAYWARD        CLOUDY    17  14  88 N3        29.74F
SIREN          CLOUDY    20  18  88 CALM      29.74F
CUMBERLAND     CLOUDY    21  19  93 CALM      29.75S
RICE LAKE      CLOUDY    22  20  93 CALM      29.78S
CHETEK         CLOUDY    19  17  94 CALM      29.77S
LADYSMITH      CLOUDY    23  21  91 SE3       29.78F
EAU CLAIRE     CLEAR     19  18  95 CALM      29.78S
MENOMONIE      CLEAR     27  24  87 CALM      29.78S
NEW RICHMOND   CLEAR     28  24  82 S5        29.76S WCI  23
OSCEOLA        CLOUDY    28  25  90 SE5       29.78F WCI  22
$$

WIZ003>005-009-010-017-018-201000-
NORTH CENTRAL WISCONSIN

CITY           SKY/WX    TMP DP  RH WIND       PRES   REMARKS
MANITOWISH WTR CLOUDY    11  11 100 CALM      29.75F
ARBOR VITAE    CLEAR     17  15  91 CALM      29.76F
WOODRUFF       CLEAR     17  15  91 CALM      29.76F
RHINELANDER    CLEAR    N/A N/A N/A S3        29.78S
EAGLE RIVER    CLOUDY    12  11  96 CALM      29.76F
LAND O LAKES   CLEAR     11   9  91 CALM      29.78S
PHILLIPS       CLOUDY    19  18  97 CALM      29.76S
TOMAHAWK       CLEAR     15  13  92 CALM      29.79S
MEDFORD        CLEAR     25  22  88 S7        29.77F WCI  17
MERRILL        CLEAR     16  15  94 CALM      29.80F
$$

WIZ029-030-035-036-043>047-201000-
CENTRAL WISCONSIN

CITY           SKY/WX    TMP DP  RH WIND       PRES   REMARKS
WAUSAU         CLEAR     23  20  88 SE6       29.80F WCI  16
MOSINEE        CLEAR     23  21  93 S5        29.82F WCI  17
MARSHFIELD     CLEAR     23  19  85 S3        29.80S
STEVENS POINT  CLEAR     22  21  95 CALM      29.83F
WAUPACA        CLEAR     26  21  79 CALM      29.85F
WAUTOMA        CLEAR     17  15  92 CALM      29.86F
WISC RAPIDS    CLEAR     23  20  88 S3        29.84F
CAMP DOUGLAS   CLEAR    N/A N/A N/A CALM      29.85F
$$

WIZ011>013-019>022-031-037>040-048>050-201000-
NORTHEAST WISCONSIN

CITY           SKY/WX    TMP DP  RH WIND       PRES   REMARKS
ANTIGO         CLEAR     21  18  89 CALM      29.80F
SHAWANO        CLEAR     26  20  80 CALM      29.84F
OCONTO         PTCLDY    22  19  89 CALM      29.85F
STURGEON BAY   PTCLDY    27  21  78 S5        29.87F WCI  22
GREEN BAY      CLEAR     29  24  82 S7        29.85F WCI  22
MANITOWOC      CLEAR     32  24  72 SW10      29.88F WCI  24
APPLETON       CLEAR     28  21  74 SW10      29.83F WCI  19
CLINTONVILLE   CLEAR     25  19  80 CALM      29.85S
OSHKOSH        CLEAR     30  23  75 SW10      29.86F WCI  21
$$

WIZ032>034-041-042-053>061-201000-
SOUTHWEST WISCONSIN

CITY           SKY/WX    TMP DP  RH WIND       PRES   REMARKS
LA CROSSE      CLEAR     34  27  75 S9        29.83F WCI  27
SPARTA         CLEAR     20  19  95 CALM      29.85F
VIROQUA        CLEAR     32  27  81 S6        29.84F WCI  26
BOSCOBEL       CLOUDY    26  22  84 CALM      29.89F
PRAIRIE DU CHI CLOUDY    36  25  64 CALM      29.88S
PLATTEVILLE    CLOUDY    31  28  88 S7        29.90F WCI  24
$$

WIZ056-057-062-063-064-067-068-201000-
SOUTH CENTRAL WISCONSIN

CITY           SKY/WX    TMP DP  RH WIND       PRES   REMARKS
REEDSBURG      CLEAR     30  23  77 S6        29.87F WCI  24
BARABOO/DELLS  CLEAR     32  23  69 CALM      29.87F
LONE ROCK      CLOUDY    25  21  85 CALM      29.90F
MINERAL POINT  CLOUDY    30  28  93 S7        29.89S WCI  23
MADISON        CLEAR     33  24  69 SW6       29.90S WCI  28
MIDDLETON      CLEAR     33  25  74 SW7       29.90S WCI  26
WATERTOWN      CLEAR     28  25  89 S3        29.91F
MONROE         CLOUDY    30  25  80 S16       29.90F WCI  19
JANESVILLE     CLEAR     32  27  80 S7        29.93F WCI  26
$$

WIZ051-052-058>065-066-070>072-201000-
SOUTHEAST WISCONSIN

CITY           SKY/WX    TMP DP  RH WIND       PRES   REMARKS
MILWAUKEE      PTCLDY    31  23  72 SW10      29.94F WCI  22
WAUKESHA       CLEAR     30  23  74 SW9       29.93F WCI  22
MILWAUKEE/TIMM CLEAR     30  21  69 SW9       29.94F WCI  22
RACINE         CLEAR     32  23  69 SW12      29.96F WCI  23
BURLINGTON     CLEAR     31  28  90 SW9       29.94F WCI  23
KENOSHA        CLEAR     32  23  69 SW12G22   29.96F WCI  23
FOND DU LAC    CLEAR     30  21  69 SW10      29.88F WCI  21
SHEBOYGAN      CLEAR     30  23  75 SW7       29.89F WCI  23
WEST BEND      CLEAR     30  23  74 SW3       29.90F
JUNEAU         CLEAR     26  22  84 S7        29.90F WCI  19
$$

LSZ147-162-201000-
LAKE SUPERIOR

STATION/POSITION TIME  TEMP    WIND        PRES    WAVE
                       AIR SEA DIR/SP/G            HT/PER
                 (UTC) (F)     (DEG/KT/KT) (MB)    (FT/S)
DEVILS ISLAND    0900   31     160/  7/  8 1007.9F
SAXON HARBOR     0840   22     200/  1/  2 1007.8F
$$

LMZ867-665-643>646-201000-
LAKE MICHIGAN

STATION/POSITION TIME  TEMP    WIND        PRES    WAVE
                       AIR SEA DIR/SP/G            HT/PER
                 (UTC) (F)     (DEG/KT/KT) (MB)    (FT/S)
N MID LAKE BUOY  0850   36 48  250/ 12/ 16 1012.2F   3/ 5
NORTHPORT PIER   0840   32     180/  2/  4 1011.2S
KEWAUNEE LAKESHO 0848   30     260/  4/  6 1010.6F
SHEBOYGAN LAKESH 0900   33     240/ 17/ 19 1012.5F
PORT WASHINGTON  0840   33     260/ 10/ 17 1013.9F
MILWAUKEE LAKESH 0850   33     240/ 15/ 16   N/A
S MID LAKE BUOY  0850   41 49  270/ 23/ 27 1014.5F   6/ 6
KENOSHA   LAKESH 0900   34     240/ 10/ 15 1014.6
$$

TC  - TEMPERATURE IN CELSIUS
VSB - VISIBILITY IN STATUTE MILES
WCI - WIND CHILL INDEX
HX  - HEAT INDEX





USA.gov is the U.S. government's official web portal to all federal, state and local government web resources and services.